[Date Prev][Date Next][Thread Prev][Thread Next] - [Date Index][Thread Index][Author Index]
2 Line ISS Keps 10-2
- Subject: [sarex] 2 Line ISS Keps 10-2
- From: "Dave Larsen PhD" <doc@xxxxxxxxxxx>
- Date: Sun, 1 Oct 2006 19:35:41 -0700
ISS
1 25544U 98067A 06274.32903458 .00016984 00000-0 10845-3 0 7776
2 25544 051.6376 000.6836 0012830 046.1444 077.7582 15.76409295449900
----
Sent via sarex@amsat.org. Opinions expressed are those of the author.
Not an AMSAT member? Join now to support the amateur satellite program!
Subscription settings: http://amsat.org/mailman/listinfo/sarex
AMSAT Home